Tracking 30400 objects as of 13-May-2025
HD Live streaming from Space Station
objects crossing your sky now

QIANFAN-87

Track QIANFAN-87 now!
10-day predictions
QIANFAN-87 is classified as:


NORAD ID: 63173
Int'l Code: 2025-046Q
Perigee: 960.2 km
Apogee: 984.5 km
Inclination: 89.0 °
Period: 104.4 minutes
Semi major axis: 7343 km
RCS: Unknown
Launch date: March 11, 2025
Source: People's Republic of China (PRC)
Launch site: Wenchang Satellite Launch Center (WSC)
Your satellite tracking list
Your tracking list is empty




NASA's NSSDC Master Catalog

Two Line Element Set (TLE):
1 63173U 25046Q   25133.57909180  .00000037  00000-0  23141-4 0  9995
2 63173  88.9832 341.9135 0016551  30.4282 329.7843 13.79621673 18665
Source of the keplerian elements: AFSPC